• In Österreich
  • Länderverzeichnis
  • Für 7 Tage
  • Wassertemperatur
  • Satellitenkarten
  • Wetterkarte
  • News
  • Widgets
  • user-avatar
    Anmelden

    Stündliche Wetter Cagua

    Heute, 16 November, Freitag

    Zeit Temperatur Niederschläge Wind Luftdruck Luftfeuchtigkeit
    00:00 +25°C° 1 mm 2 m/S 718 mmHg 93%
    01:00 +25°C° 1 mm 2 m/S 718 mmHg 93%
    02:00 +24°C° 1 mm 2 m/S 718 mmHg 93%
    03:00 +24°C° 0 mm 2 m/S 718 mmHg 93%
    04:00 +24°C° 0 mm 1 m/S 717 mmHg 93%
    05:00 +24°C° 0 mm 1 m/S 717 mmHg 93%
    06:00 +25°C° 0 mm 1 m/S 718 mmHg 91%
    07:00 +25°C° 0 mm 1 m/S 718 mmHg 89%
    08:00 +26°C° 0 mm 1 m/S 718 mmHg 87%
    09:00 +27°C° 0.1 mm 1 m/S 719 mmHg 83%
    10:00 +28°C° 0.1 mm 2 m/S 719 mmHg 79%
    11:00 +29°C° 0.1 mm 2 m/S 719 mmHg 74%
    12:00 +29°C° 0.6 mm 2 m/S 718 mmHg 73%
    13:00 +30°C° 0.6 mm 2 m/S 718 mmHg 73%
    14:00 +30°C° 0.6 mm 2 m/S 717 mmHg 72%
    15:00 +30°C° 0.9 mm 2 m/S 716 mmHg 74%
    16:00 +29°C° 0.9 mm 2 m/S 716 mmHg 77%
    17:00 +29°C° 0.9 mm 2 m/S 715 mmHg 79%
    18:00 +28°C° 0.9 mm 2 m/S 716 mmHg 82%
    19:00 +27°C° 0.9 mm 2 m/S 716 mmHg 86%
    20:00 +26°C° 0.9 mm 2 m/S 717 mmHg 89%
    21:00 +25°C° 0.2 mm 2 m/S 717 mmHg 89%
    22:00 +25°C° 0.2 mm 2 m/S 717 mmHg 90%
    23:00 +25°C° 0.2 mm 2 m/S 718 mmHg 90%

    Morgen, 17 November, Samstag

    Zeit Temperatur Niederschläge Wind Luftdruck Luftfeuchtigkeit
    00:00 +25°C° 0.1 mm 2 m/S 717 mmHg 91%
    01:00 +25°C° 0.1 mm 2 m/S 717 mmHg 91%
    02:00 +25°C° 0.1 mm 1 m/S 717 mmHg 91%
    03:00 +24°C° 0.4 mm 1 m/S 717 mmHg 91%
    04:00 +24°C° 0.4 mm 1 m/S 717 mmHg 91%
    05:00 +24°C° 0.4 mm 1 m/S 717 mmHg 92%
    06:00 +25°C° 0.1 mm 1 m/S 717 mmHg 89%
    07:00 +25°C° 0.1 mm 1 m/S 718 mmHg 87%
    08:00 +26°C° 0.1 mm 1 m/S 719 mmHg 85%
    09:00 +27°C° 0.2 mm 2 m/S 719 mmHg 82%
    10:00 +27°C° 0.2 mm 2 m/S 719 mmHg 79%
    11:00 +28°C° 0.2 mm 2 m/S 720 mmHg 76%
    12:00 +29°C° 0.4 mm 2 m/S 719 mmHg 76%
    13:00 +29°C° 0.4 mm 2 m/S 718 mmHg 76%
    14:00 +29°C° 0.4 mm 2 m/S 717 mmHg 76%
    15:00 +29°C° 0.6 mm 2 m/S 717 mmHg 78%
    16:00 +28°C° 0.6 mm 2 m/S 716 mmHg 81%
    17:00 +28°C° 0.6 mm 2 m/S 716 mmHg 84%
    18:00 +27°C° 0.1 mm 2 m/S 716 mmHg 86%
    19:00 +26°C° 0.1 mm 2 m/S 717 mmHg 88%
    20:00 +25°C° 0.1 mm 2 m/S 717 mmHg 90%
    21:00 +25°C° 0 mm 2 m/S 718 mmHg 91%
    22:00 +25°C° 0 mm 2 m/S 718 mmHg 91%
    23:00 +25°C° 0 mm 2 m/S 718 mmHg 92%

    übermorgen, 18 November, Sonntag

    Zeit Temperatur Niederschläge Wind Luftdruck Luftfeuchtigkeit
    00:00 +25°C° 0.1 mm 1 m/S 718 mmHg 91%
    01:00 +24°C° 0.1 mm 1 m/S 718 mmHg 91%
    02:00 +24°C° 0.1 mm 1 m/S 717 mmHg 91%
    03:00 +24°C° 0 mm 1 m/S 717 mmHg 92%
    04:00 +24°C° 0 mm 1 m/S 717 mmHg 92%
    05:00 +24°C° 0 mm 1 m/S 717 mmHg 92%
    06:00 +24°C° 0 mm 1 m/S 717 mmHg 90%
    07:00 +25°C° 0 mm 1 m/S 718 mmHg 87%
    08:00 +26°C° 0 mm 1 m/S 718 mmHg 84%
    09:00 +27°C° 0 mm 2 m/S 719 mmHg 76%
    10:00 +29°C° 0 mm 2 m/S 719 mmHg 68%
    11:00 +31°C° 0 mm 2 m/S 720 mmHg 60%
    12:00 +31°C° 0.5 mm 2 m/S 719 mmHg 63%
    13:00 +31°C° 0.5 mm 2 m/S 718 mmHg 66%
    14:00 +31°C° 0.5 mm 2 m/S 717 mmHg 69%
    15:00 +30°C° 1.1 mm 2 m/S 717 mmHg 72%
    16:00 +29°C° 1.1 mm 2 m/S 716 mmHg 75%
    17:00 +29°C° 1.1 mm 2 m/S 716 mmHg 78%
    18:00 +28°C° 0.7 mm 2 m/S 716 mmHg 82%
    19:00 +26°C° 0.7 mm 2 m/S 717 mmHg 86%
    20:00 +25°C° 0.7 mm 2 m/S 717 mmHg 90%
    21:00 +25°C° 0.1 mm 2 m/S 718 mmHg 91%
    22:00 +25°C° 0.1 mm 2 m/S 718 mmHg 92%
    23:00 +25°C° 0.1 mm 2 m/S 718 mmHg 92%

    19 November, Montag

    Zeit Temperatur Niederschläge Wind Luftdruck Luftfeuchtigkeit
    00:00 +24°C° 0 mm 2 m/S 718 mmHg 93%
    01:00 +24°C° 0 mm 1 m/S 717 mmHg 93%
    02:00 +24°C° 0 mm 1 m/S 717 mmHg 93%
    03:00 +24°C° 0 mm 1 m/S 717 mmHg 93%
    04:00 +24°C° 0 mm 1 m/S 717 mmHg 92%
    05:00 +23°C° 0 mm 1 m/S 717 mmHg 92%
    06:00 +24°C° 0 mm 1 m/S 718 mmHg 88%
    07:00 +25°C° 0 mm 1 m/S 718 mmHg 85%
    08:00 +26°C° 0 mm 1 m/S 719 mmHg 81%
    09:00 +28°C° 0 mm 1 m/S 719 mmHg 74%
    10:00 +29°C° 0 mm 2 m/S 719 mmHg 67%
    11:00 +31°C° 0 mm 2 m/S 719 mmHg 60%
    12:00 +31°C° 0.2 mm 2 m/S 719 mmHg 59%
    13:00 +32°C° 0.2 mm 2 m/S 718 mmHg 58%
    14:00 +32°C° 0.2 mm 2 m/S 717 mmHg 58%
    15:00 +31°C° 0.3 mm 2 m/S 716 mmHg 64%
    16:00 +30°C° 0.3 mm 2 m/S 716 mmHg 69%
    17:00 +29°C° 0.3 mm 2 m/S 715 mmHg 75%
    18:00 +28°C° 0.5 mm 2 m/S 716 mmHg 80%
    19:00 +27°C° 0.5 mm 2 m/S 716 mmHg 84%
    20:00 +26°C° 0.5 mm 2 m/S 717 mmHg 89%
    21:00 +25°C° 0 mm 2 m/S 717 mmHg 90%
    22:00 +25°C° 0 mm 2 m/S 718 mmHg 91%
    23:00 +24°C° 0 mm 2 m/S 718 mmHg 93%

    20 November, Dienstag

    Zeit Temperatur Niederschläge Wind Luftdruck Luftfeuchtigkeit
    00:00 +24°C° 0 mm 2 m/S 718 mmHg 93%
    01:00 +24°C° 0 mm 2 m/S 717 mmHg 93%
    02:00 +24°C° 0 mm 2 m/S 717 mmHg 93%
    03:00 +24°C° 0 mm 1 m/S 717 mmHg 94%
    04:00 +23°C° 0 mm 1 m/S 717 mmHg 94%
    05:00 +23°C° 0 mm 1 m/S 717 mmHg 94%
    06:00 +24°C° 0 mm 1 m/S 717 mmHg 91%
    07:00 +25°C° 0 mm 1 m/S 718 mmHg 87%
    08:00 +26°C° 0 mm 1 m/S 719 mmHg 84%
    09:00 +28°C° 0 mm 1 m/S 719 mmHg 76%
    10:00 +29°C° 0 mm 2 m/S 719 mmHg 68%
    11:00 +31°C° 0 mm 2 m/S 719 mmHg 60%
    12:00 +31°C° 0.1 mm 2 m/S 718 mmHg 60%
    13:00 +31°C° 0.1 mm 2 m/S 717 mmHg 60%
    14:00 +32°C° 0.1 mm 2 m/S 717 mmHg 60%
    15:00 +31°C° 0.6 mm 2 m/S 716 mmHg 64%
    16:00 +30°C° 0.6 mm 2 m/S 716 mmHg 69%
    17:00 +30°C° 0.6 mm 2 m/S 716 mmHg 73%
    18:00 +28°C° 0.4 mm 2 m/S 716 mmHg 78%
    19:00 +27°C° 0.4 mm 2 m/S 717 mmHg 83%
    20:00 +25°C° 0.4 mm 2 m/S 717 mmHg 88%
    21:00 +25°C° 0 mm 2 m/S 718 mmHg 89%
    22:00 +25°C° 0 mm 2 m/S 718 mmHg 90%
    23:00 +25°C° 0 mm 2 m/S 718 mmHg 91%

    21 November, Mittwoch

    Zeit Temperatur Niederschläge Wind Luftdruck Luftfeuchtigkeit
    00:00 +24°C° 0 mm 2 m/S 718 mmHg 92%
    01:00 +24°C° 0 mm 2 m/S 717 mmHg 92%
    02:00 +24°C° 0 mm 2 m/S 717 mmHg 92%
    03:00 +24°C° 0 mm 1 m/S 717 mmHg 92%
    04:00 +24°C° 0 mm 1 m/S 717 mmHg 92%
    05:00 +24°C° 0 mm 1 m/S 717 mmHg 92%
    06:00 +24°C° 0 mm 1 m/S 718 mmHg 89%
    07:00 +25°C° 0 mm 1 m/S 719 mmHg 86%
    08:00 +26°C° 0 mm 1 m/S 719 mmHg 83%
    09:00 +28°C° 0 mm 1 m/S 719 mmHg 76%
    10:00 +29°C° 0 mm 1 m/S 720 mmHg 68%
    11:00 +31°C° 0 mm 1 m/S 720 mmHg 61%
    12:00 +31°C° 0.2 mm 2 m/S 719 mmHg 62%
    13:00 +31°C° 0.2 mm 2 m/S 718 mmHg 62%
    14:00 +32°C° 0.2 mm 2 m/S 717 mmHg 63%
    15:00 +31°C° 0.3 mm 2 m/S 717 mmHg 68%
    16:00 +30°C° 0.3 mm 2 m/S 716 mmHg 74%
    17:00 +28°C° 0.3 mm 2 m/S 716 mmHg 79%
    18:00 +27°C° 0.3 mm 2 m/S 717 mmHg 83%
    19:00 +26°C° 0.3 mm 2 m/S 717 mmHg 86%
    20:00 +25°C° 0.3 mm 2 m/S 718 mmHg 90%
    21:00 +25°C° 0.1 mm 2 m/S 718 mmHg 91%
    22:00 +25°C° 0.1 mm 2 m/S 718 mmHg 91%
    23:00 +24°C° 0.1 mm 2 m/S 718 mmHg 92%
    Mehr zeigen